Cozumel, Mexico

2:11 AM EST on June 29, 2017 (GMT -0500)
Cozumel

Weather History for MMCZ - January, 2012

Change the Weather History Date:

Sunday, January 8, 2012

  Actual Average Record
Temperature  
Mean Temperature 68 °F -  
Max Temperature 78 °F 80 °F 86 °F (1997)
Min Temperature 57 °F 69 °F 50 °F (2011)
Cooling Degree Days 2    
Growing Degree Days 18 (Base 50)    
Moisture  
Dew Point 60 °F    
Average Humidity 79    
Maximum Humidity 94    
Minimum Humidity 57    
Precipitation  
Precipitation 0.00 in - - ()
Sea Level Pressure  
Sea Level Pressure 30.08 in    
Wind  
Wind Speed 3 mph ()    
Max Wind Speed 14 mph    
Max Gust Speed -    
Visibility 7.1 miles    
Events      
Averages and records for this station are not official NWS values.
T = Trace of Precipitation, MM = Missing Value Source: Averaged Metar Reports

Daily Weather History Graph

Daily Weather History Graph

Search for Another Location

Airport or City:

Trip Planner

Search our weather history database for the weather conditions in past years. The results will help you decide how hot, cold, wet, or windy it might be!

Date:

Astronomy

Jan. 08, 2012 Rise Set
Actual Time 6:25 AM CST 5:23 PM CST
Civil Twilight 6:01 AM CST 5:46 PM CST
Nautical Twilight 5:34 AM CST 6:14 PM CST
Astronomical Twilight 5:07 AM CST 6:41 PM CST
Moon 5:03 PM CST (1/8) 5:43 AM CST (1/8)
Length of Visible Light 11h 45m
Length of Day
10h 57m
Full, 100% of the Moon is Illuminated
Jan 8
Full
Jan 9
Full
Jan 16
Last Quarter
Jan 23
New
Jan 30
First Quarter

Hourly Weather History & Observations

Time (CST) Temp. Dew Point Humidity Pressure Visibility Wind Dir Wind Speed Gust Speed Precip Events Conditions
12:44 AM 57.2 °F 55.4 °F 94% 30.09 in 7.0 mi Calm Calm - N/A   Clear
1:52 AM 57.2 °F 55.4 °F 94% 30.07 in 7.0 mi Calm Calm - N/A   Clear
2:47 AM 57.2 °F 55.4 °F 94% 30.09 in 7.0 mi Calm Calm - N/A   Clear
3:46 AM 57.2 °F 53.6 °F 88% 30.07 in 7.0 mi Calm Calm - N/A   Clear
4:41 AM 57.2 °F 55.4 °F 94% 30.07 in 7.0 mi Calm Calm - N/A   Partly Cloudy
5:44 AM 57.2 °F 55.4 °F 94% 30.06 in 7.0 mi Calm Calm - N/A   Partly Cloudy
6:42 AM 57.2 °F 55.4 °F 94% 30.10 in 7.0 mi Calm Calm - N/A   Partly Cloudy
7:40 AM 64.4 °F 60.8 °F 88% 30.11 in 7.0 mi ENE 4.6 mph - N/A   Partly Cloudy
8:42 AM 71.6 °F 62.6 °F 73% 30.16 in 7.0 mi East 5.8 mph - N/A   Partly Cloudy
9:40 AM 75.2 °F 60.8 °F 61% 30.14 in 7.0 mi East 10.4 mph - N/A   Scattered Clouds
10:40 AM 77.0 °F 60.8 °F 57% 30.12 in 7.0 mi East 13.8 mph - N/A   Mostly Cloudy
11:40 AM 77.0 °F 60.8 °F 57% 30.08 in 7.0 mi East 13.8 mph - N/A   Mostly Cloudy
12:44 PM 78.8 °F 62.6 °F 57% 30.08 in 7.0 mi East 13.8 mph - N/A   Mostly Cloudy
1:40 PM 75.2 °F 62.6 °F 65% 30.06 in 7.0 mi East 12.7 mph - N/A   Mostly Cloudy
2:41 PM 75.2 °F 62.6 °F 65% 30.08 in 8.0 mi East 10.4 mph - N/A   Mostly Cloudy
3:45 PM 77.0 °F 62.6 °F 61% 30.05 in 8.0 mi East 10.4 mph - N/A   Scattered Clouds
4:49 PM 73.4 °F 62.6 °F 69% 30.06 in 8.0 mi East 6.9 mph - N/A   Partly Cloudy
5:40 PM 71.6 °F 62.6 °F 73% 30.03 in 7.0 mi Calm Calm - N/A   Partly Cloudy
6:44 PM 68.0 °F 62.6 °F 83% 30.07 in 7.0 mi East 3.5 mph - N/A   Partly Cloudy
7:43 PM 66.2 °F 60.8 °F 83% 30.07 in 7.0 mi Calm Calm - N/A   Partly Cloudy
8:50 PM 66.2 °F 60.8 °F 83% 30.10 in 7.0 mi East 4.6 mph - N/A   Partly Cloudy
9:43 PM 66.2 °F 62.6 °F 88% 30.07 in 7.0 mi East 3.5 mph - N/A   Partly Cloudy
10:50 PM 66.2 °F 62.6 °F 88% 30.06 in 7.0 mi ESE 4.6 mph - N/A   Partly Cloudy
11:42 PM 66.2 °F 62.6 °F 88% 30.01 in 7.0 mi East 3.5 mph - N/A   Partly Cloudy